HERMES Pathfinder H2

operational
NORAD ID: 63243 Int'l Des: 2025-052 Owner: ASI Country: I
LEOCIRCULARRETROGRADESSO

About HERMES Pathfinder H2

Description loading...

Live Position

Loading 3D Globe...

Upcoming Passes

Altitude History

Altitude vs Time

uPlot chart will show altitude changes over time

Two-Line Element Set

1 63243U 25052AK 25315.16635008 .00016295 00000-0 68427-3 0 9990
2 63243 97.4092 206.8208 0006221 140.1389 220.0306 15.23513008 36745
Epoch: Nov 11, 2025 • Age: 17 hours

Current Status

Altitude 526.6 km
Velocity 7.60 km/s
Sub-Earth Point -81.53°S, 97.78°W
Launch Date Mar 15, 2025
Age 0.6 years
Type other

Technical Details

Classification Payload
Mass 5.00 kg
Dry Mass 5.00 kg
Total Mass 5.00 kg
Length 0.30 m
Diameter 0.10 m
Span 0.30 m
Shape Box
Manufacturer MILANP/INAFI
Bus Type Cubesat 3U
Phase Status In Orbit
Owner/State ASI/I

Large Constellations

Loading constellations...